Location: Austin
(30.3000°N, 97.7500°W)
Time: 07:09:33
(UTC-05:00)

Cosmos 1937 Rocket - Pass Details

Date: 19 September 2023
Orbit: 745 x 779 km, 74.0° (Epoch: 25 September)

Event Time Altitude Azimuth Distance (km) Brightness Sun altitude
Exits shadow 05:44:18 33° 209° (SSW) 1,236 4.2 -20.7°
Maximum altitude 05:46:36 72° 286° (WNW) 783 3.3 -20.2°
Drops below altitude 10° 05:51:43 10° 11° (NNE) 2,269 6.2 -19.2°
Sets 05:54:06 0° 14° (NNE) 3,199 7.1 -18.7°
